Montreal, Quebec

5:24 PM EDT on April 27, 2017 (GMT -0400)
Montreal-Pierre Elliott Trudeau Int'l Airport

Weather History for CYUL - April, 2014

Change the Weather History Date:

Sunday, April 27, 2014

  Actual Average Record
Temperature  
Mean Temperature 43 °F -  
Max Temperature 50 °F 64 °F 68 °F (2008)
Min Temperature 36 °F 44 °F 28 °F (1998)
Degree Days  
Heating Degree Days 22    
Moisture  
Dew Point 37 °F    
Average Humidity 81    
Maximum Humidity 93    
Minimum Humidity 62    
Precipitation  
Precipitation 0.08 in 0.09 in - ()
Sea Level Pressure  
Sea Level Pressure 30.04 in    
Wind  
Wind Speed 10 mph ()    
Max Wind Speed 17 mph    
Max Gust Speed 22 mph    
Visibility 13.1 miles    
Events Rain    
Averages and records for this station are not official NWS values.
T = Trace of Precipitation, MM = Missing Value Source: Averaged Metar Reports

Daily Weather History Graph

Daily Weather History Graph

Search for Another Location

Airport or City:

Trip Planner

Search our weather history database for the weather conditions in past years. The results will help you decide how hot, cold, wet, or windy it might be!

Date:

Astronomy

Apr. 27, 2014 Rise Set
Actual Time 5:49 AM EDT 7:56 PM EDT
Civil Twilight 5:17 AM EDT 8:28 PM EDT
Nautical Twilight 4:37 AM EDT 9:08 PM EDT
Astronomical Twilight 3:53 AM EDT 9:53 PM EDT
Moon 4:54 AM EDT 6:23 PM EDT
Length of Visible Light 15h 11m
Length of Day
14h 07m
Waning Crescent, 3% of the Moon is Illuminated
Apr 27
Waning Crescent
Apr 29
New
May 6
First Quarter
May 14
Full
May 21
Last Quarter

Hourly Weather History & Observations

Time (EDT) Temp. Windchill Dew Point Humidity Pressure Visibility Wind Dir Wind Speed Gust Speed Precip Events Conditions
12:00 AM 39.2 °F 31.6 °F 35.6 °F 87% 29.87 in 10.0 mi North 12.7 mph 20.7 mph N/A Rain Light Rain
12:53 AM 37.4 °F 29.8 °F 35.6 °F 93% 29.88 in 12.0 mi North 11.5 mph - N/A Rain Light Rain
1:00 AM 37.4 °F 28.9 °F 35.6 °F 93% 29.88 in 12.0 mi North 13.8 mph - N/A Rain Light Rain
2:00 AM 37 °F - 35 °F 91% 29.89 in 12 mi North 11.5 mph - - Rain Light Rain
2:00 AM 37.4 °F 29.3 °F 35.6 °F 93% 29.89 in 12.0 mi North 12.7 mph - N/A Rain Light Rain
3:00 AM 35.6 °F 26.2 °F 33.8 °F 93% 29.90 in 10.0 mi North 15.0 mph 21.9 mph N/A Rain Light Rain
4:00 AM 37.4 °F 29.8 °F 35.6 °F 93% 29.91 in 10.0 mi North 11.5 mph 18.4 mph N/A Rain Light Rain
5:00 AM 37.4 °F 30.3 °F 35.6 °F 93% 29.94 in 10.0 mi North 10.4 mph - N/A Rain Light Rain
5:17 AM 37.4 °F 29.8 °F 35.6 °F 93% 29.94 in 10.0 mi North 11.5 mph - N/A   Light Drizzle
6:00 AM 37.4 °F 29.3 °F 35.6 °F 93% 29.96 in 12.0 mi North 12.7 mph - N/A Rain Light Rain
7:00 AM 39.2 °F 32.0 °F 35.6 °F 87% 29.99 in 12.0 mi North 11.5 mph - N/A Rain Light Rain
8:00 AM 40 °F - 37 °F 84% 30.02 in 10 mi North 12.7 mph - - Rain Light Rain
8:00 AM 39.2 °F 31.2 °F 37.4 °F 93% 30.02 in 10.0 mi North 13.8 mph - N/A Rain Light Rain
9:00 AM 41.0 °F 32.5 °F 37.4 °F 87% 30.04 in 12.0 mi North 17.3 mph - N/A Rain Light Rain
9:24 AM 41.0 °F 33.5 °F 37.4 °F 87% 30.05 in 12.0 mi NNE 13.8 mph 20.7 mph N/A   Overcast
9:49 AM 41.0 °F 33.5 °F 37.4 °F 87% 30.06 in 12.0 mi North 13.8 mph - N/A   Overcast
10:00 AM 41.0 °F 33.5 °F 37.4 °F 87% 30.06 in 15.0 mi North 13.8 mph - N/A   Overcast
11:00 AM 42.8 °F 35.8 °F 37.4 °F 81% 30.09 in 15.0 mi North 13.8 mph - N/A   Overcast
12:00 PM 44.6 °F 38.1 °F 35.6 °F 71% 30.09 in 15.0 mi North 13.8 mph - N/A   Mostly Cloudy
1:00 PM 46.4 °F 42.4 °F 37.4 °F 71% 30.09 in 15.0 mi NNE 8.1 mph - N/A   Overcast
2:00 PM 46 °F - 37 °F 62% 30.10 in 15 mi North 9.2 mph - - Rain Light Rain Showers
2:00 PM 46.4 °F 41.1 °F 37.4 °F 71% 30.10 in 15.0 mi North 11.5 mph 18.4 mph N/A Rain Light Rain Showers
3:00 PM 48.2 °F - 39.2 °F 71% 30.11 in 15.0 mi NW 5.8 mph - N/A Rain Light Rain Showers
3:41 PM 48.2 °F - 37.4 °F 66% 30.11 in 30.0 mi WNW 8.1 mph - N/A   Mostly Cloudy
4:00 PM 48.2 °F - 39.2 °F 71% 30.11 in 30.0 mi NNW 10.4 mph - N/A   Mostly Cloudy
5:00 PM 50.0 °F - 37.4 °F 62% 30.12 in 15.0 mi NNW 5.8 mph - N/A   Mostly Cloudy
6:00 PM 48.2 °F - 37.4 °F 66% 30.11 in 15.0 mi NNE 9.2 mph - N/A   Mostly Cloudy
7:00 PM 46.4 °F 40.7 °F 39.2 °F 76% 30.13 in 15.0 mi NE 12.7 mph 19.6 mph N/A Rain Light Rain Showers
7:29 PM 46.4 °F 43.5 °F 39.2 °F 76% 30.13 in 15.0 mi North 5.8 mph - N/A   Mostly Cloudy
8:00 PM 46 °F - 38 °F 65% 30.15 in 15 mi NNW 5.8 mph - - Rain Light Rain Showers
8:00 PM 46.4 °F 44.3 °F 37.4 °F 71% 30.14 in 15.0 mi NNW 4.6 mph - N/A   Scattered Clouds
9:00 PM 44.6 °F 42.2 °F 37.4 °F 76% 30.17 in 15.0 mi NW 4.6 mph - N/A   Mostly Cloudy
10:00 PM 42.8 °F 40.1 °F 37.4 °F 81% 30.17 in 15.0 mi WNW 4.6 mph - N/A   Partly Cloudy
11:00 PM 42.8 °F 40.1 °F 37.4 °F 81% 30.17 in 15.0 mi NW 4.6 mph - N/A   Partly Cloudy